Puebla, Mexico

6:07 PM CDT on June 22, 2017 (GMT -0500)
Hermanos Serdan International

Weather History for MMPB - April, 2013

Change the Weather History Date:

Tuesday, April 9, 2013

  Actual Average Record
Temperature  
Mean Temperature 62 °F -  
Max Temperature 81 °F 74 °F 86 °F (2011)
Min Temperature 44 °F 49 °F 42 °F (2012)
Degree Days  
Heating Degree Days 2    
Growing Degree Days 12 (Base 50)    
Moisture  
Dew Point 36 °F    
Average Humidity 34    
Maximum Humidity 81    
Minimum Humidity 14    
Precipitation  
Precipitation 0.00 in - - ()
Sea Level Pressure  
Sea Level Pressure 30.05 in    
Wind  
Wind Speed 6 mph ()    
Max Wind Speed 25 mph    
Max Gust Speed -    
Visibility 7.8 miles    
Events      
Averages and records for this station are not official NWS values.
T = Trace of Precipitation, MM = Missing Value Source: Averaged Metar Reports

Daily Weather History Graph

Daily Weather History Graph

Search for Another Location

Airport or City:

Trip Planner

Search our weather history database for the weather conditions in past years. The results will help you decide how hot, cold, wet, or windy it might be!

Date:

Astronomy

Apr. 09, 2013 Rise Set
Actual Time 7:19 AM CDT 7:48 PM CDT
Civil Twilight 6:57 AM CDT 8:10 PM CDT
Nautical Twilight 6:31 AM CDT 8:36 PM CDT
Astronomical Twilight 6:05 AM CDT 9:03 PM CDT
Moon 6:40 AM CDT (4/9) 7:24 PM CDT (4/9)
Length of Visible Light 13h 13m
Length of Day
12h 28m
Waning Crescent, 1% of the Moon is Illuminated
Apr 9
Waning Crescent
Apr 10
New
Apr 18
First Quarter
Apr 25
Full
May 2
Last Quarter

Hourly Weather History & Observations

Time (CDT) Temp. Windchill Dew Point Humidity Pressure Visibility Wind Dir Wind Speed Gust Speed Precip Events Conditions
12:56 AM 67 °F - 37 °F 22% 29.60 in 3 mi Calm Calm - -  
3:50 AM 64 °F - 38 °F 26% 29.70 in 3 mi Calm Calm - -   Scattered Clouds
5:52 AM 50.0 °F - 39.2 °F 66% 30.23 in 8.0 mi WNW 3.5 mph - N/A   Clear
6:42 AM 48.2 °F - 39.2 °F 71% 30.24 in 8.0 mi West 3.5 mph - N/A   Clear
6:56 AM 56 °F - 48 °F 67% 29.71 in 3 mi Calm Calm - -  
7:42 AM 44.6 °F 41.4 °F 39.2 °F 81% 30.26 in 8.0 mi NNW 5.8 mph - N/A   Clear
8:42 AM 53.6 °F - 41.0 °F 62% 30.28 in 8.0 mi NNW 4.6 mph - N/A   Partly Cloudy
9:47 AM 62.6 °F - 44.6 °F 52% 30.29 in 6.0 mi NNW 3.5 mph - N/A   Clear
9:50 AM 68 °F - 48 °F 38% 29.79 in 3 mi ESE 2.2 mph - -   Haze
10:46 AM 66.2 °F - 44.6 °F 46% 30.29 in 6.0 mi East 3.5 mph - N/A   Clear
11:40 AM 71.6 °F - 41.0 °F 33% 30.29 in 8.0 mi South 8.1 mph - N/A   Overcast
12:42 PM 71.6 °F - 41.0 °F 33% 30.26 in 8.0 mi SSW 16.1 mph - N/A   Overcast
12:50 PM 77 °F - 45 °F 21% 29.77 in 12 mi SSE 2.2 mph - -   Clear
1:42 PM 75.2 °F - 39.2 °F 27% 30.23 in 8.0 mi South 17.3 mph - N/A   Mostly Cloudy
2:43 PM 77.0 °F - 32.0 °F 19% 30.20 in 10.0 mi South 20.7 mph - N/A   Mostly Cloudy
3:40 PM 78 °F - 38 °F 14% 29.64 in 6 mi SSE 2.2 mph - -   Haze
3:41 PM 77.0 °F - 26.6 °F 16% 30.17 in 10.0 mi South 25.3 mph - N/A   Mostly Cloudy
4:40 PM 75.2 °F - 26.6 °F 17% 30.15 in 10.0 mi South 21.9 mph - N/A   Mostly Cloudy
5:41 PM 73.4 °F - 26.6 °F 18% 30.15 in 10.0 mi South 20.7 mph - N/A   Overcast
6:40 PM 71.6 °F - 26.6 °F 19% 30.16 in 10.0 mi South 21.9 mph - N/A   Overcast
6:50 PM 74 °F - 36 °F 15% 29.55 in 12 mi South 2.2 mph - -   Overcast
7:40 PM 68.0 °F - 28.4 °F 23% 30.17 in 10.0 mi SSE 12.7 mph - N/A   Overcast
8:45 PM 64.4 °F - 28.4 °F 26% 30.19 in 10.0 mi South 12.7 mph - N/A   Overcast
9:41 PM 62.6 °F - 26.6 °F 26% 30.22 in 10.0 mi SE 10.4 mph - N/A   Overcast
9:45 PM 68 °F - 31 °F 15% 29.58 in 3 mi ESE 2.2 mph - -   Haze
10:43 PM 60.8 °F - 23.0 °F 23% 30.24 in 10.0 mi South 11.5 mph - N/A   Overcast